Data start date =,4/11/1934
Data end date/time =,5/2/2024 12:00
Vertical Datum =,MSL1912
""
Date/Time,LockDam_09-Tailwater
,Elev
UTC,ft
,Ave
4/12/1934 12:00,618.02
4/13/1934 12:00,618.36
4/14/1934 12:00,619.22
4/15/1934 12:00,619.16
4/16/1934 12:00,618.67
4/17/1934 12:00,618.17
4/18/1934 12:00,617.68
4/19/1934 12:00,617.20
4/20/1934 12:00,616.64
4/21/1934 12:00,616.11
4/22/1934 12:00,615.71
4/23/1934 12:00,615.08
4/24/1934 12:00,614.54
4/25/1934 12:00,614.02
4/26/1934 12:00,613.70
4/27/1934 12:00,613.18
4/28/1934 12:00,612.64
4/29/1934 12:00,612.60
4/30/1934 12:00,612.16
5/1/1934 12:00,612.24
5/2/1934 12:00,611.98
5/3/1934 12:00,611.74
5/4/1934 12:00,611.34
5/5/1934 12:00,611.24
5/6/1934 12:00,611.25
5/7/1934 12:00,611.26
5/8/1934 12:00,611.11
5/9/1934 12:00,610.96
5/10/1934 12:00,610.76
5/11/1934 12:00,610.46
5/12/1934 12:00,610.36
5/13/1934 12:00,610.46
5/14/1934 12:00,610.36
5/15/1934 12:00,610.46
5/16/1934 12:00,610.42
5/17/1934 12:00,610.34
5/18/1934 12:00,610.09
5/19/1934 12:00,610.09
5/20/1934 12:00,609.79
5/21/1934 12:00,609.79
5/22/1934 12:00,609.74
5/23/1934 12:00,609.64
5/24/1934 12:00,609.54
5/25/1934 12:00,609.44
5/26/1934 12:00,609.39
5/27/1934 12:00,609.32
5/28/1934 12:00,609.32
5/29/1934 12:00,609.34
5/30/1934 12:00,609.32
5/31/1934 12:00,609.29
6/1/1934 12:00,609.12
6/2/1934 12:00,608.96
6/3/1934 12:00,608.92
6/4/1934 12:00,608.79
6/5/1934 12:00,608.82
6/6/1934 12:00,608.79
6/7/1934 12:00,608.76
6/8/1934 12:00,608.54
6/9/1934 12:00,608.54
6/10/1934 12:00,608.64
6/11/1934 12:00,608.74
6/12/1934 12:00,608.90
6/13/1934 12:00,608.79
6/14/1934 12:00,608.74
6/15/1934 12:00,608.72
6/16/1934 12:00,608.72
6/17/1934 12:00,608.63
6/18/1934 12:00,608.54
6/19/1934 12:00,608.44
6/20/1934 12:00,608.54
6/21/1934 12:00,608.44
6/22/1934 12:00,608.34
6/23/1934 12:00,608.34
6/24/1934 12:00,608.34
6/25/1934 12:00,608.54
6/26/1934 12:00,608.54
6/27/1934 12:00,608.64
6/28/1934 12:00,608.69
6/29/1934 12:00,608.74
6/30/1934 12:00,609.04
7/1/1934 12:00,609.44
7/2/1934 12:00,609.74
7/3/1934 12:00,609.72
7/4/1934 12:00,609.54
7/5/1934 12:00,609.14
7/6/1934 12:00,609.00
7/7/1934 12:00,609.59
7/8/1934 12:00,609.69
7/9/1934 12:00,609.59
7/10/1934 12:00,609.54
7/11/1934 12:00,610.09
7/12/1934 12:00,610.06
7/13/1934 12:00,608.74
7/14/1934 12:00,609.16
7/15/1934 12:00,608.89
7/16/1934 12:00,608.74
7/17/1934 12:00,608.64
7/18/1934 12:00,608.59
7/19/1934 12:00,608.74
7/20/1934 12:00,608.94
7/21/1934 12:00,608.84
7/22/1934 12:00,608.64
7/23/1934 12:00,608.44
7/24/1934 12:00,608.14
7/25/1934 12:00,607.99
7/26/1934 12:00,607.97
7/27/1934 12:00,608.79
7/28/1934 12:00,609.54
7/29/1934 12:00,609.24
7/30/1934 12:00,608.49
7/31/1934 12:00,608.14
8/1/1934 12:00,607.84
8/2/1934 12:00,607.69
8/3/1934 12:00,607.54
8/4/1934 12:00,607.41
8/5/1934 12:00,607.29
8/6/1934 12:00,607.39
8/7/1934 12:00,607.24
8/8/1934 12:00,607.29
8/9/1934 12:00,607.19
8/10/1934 12:00,607.19
8/11/1934 12:00,607.19
8/12/1934 12:00,607.19
8/13/1934 12:00,607.34
8/14/1934 12:00,607.29
8/15/1934 12:00,607.34
8/16/1934 12:00,607.34
8/17/1934 12:00,607.29
8/18/1934 12:00,607.19
8/19/1934 12:00,607.19
8/20/1934 12:00,607.14
8/21/1934 12:00,607.34
8/22/1934 12:00,607.46
8/23/1934 12:00,607.39
8/24/1934 12:00,607.39
8/25/1934 12:00,607.29
8/26/1934 12:00,607.24
8/27/1934 12:00,607.09
8/28/1934 12:00,607.09
8/29/1934 12:00,606.99
8/30/1934 12:00,606.84
8/31/1934 12:00,606.89
9/1/1934 12:00,607.09
9/2/1934 12:00,607.19
9/3/1934 12:00,607.24
9/4/1934 12:00,607.69
9/5/1934 12:00,607.99
9/6/1934 12:00,607.99
9/7/1934 12:00,607.94
9/8/1934 12:00,607.89
9/9/1934 12:00,607.89
9/10/1934 12:00,607.79
9/11/1934 12:00,607.93
9/12/1934 12:00,607.97
9/13/1934 12:00,607.93
9/14/1934 12:00,607.90
9/15/1934 12:00,607.83
9/16/1934 12:00,607.88
9/17/1934 12:00,607.94
9/18/1934 12:00,608.01
9/19/1934 12:00,607.98
9/20/1934 12:00,607.98
9/21/1934 12:00,607.98
9/22/1934 12:00,607.99
9/23/1934 12:00,608.03
9/24/1934 12:00,608.12
9/25/1934 12:00,608.44
9/26/1934 12:00,608.78
9/27/1934 12:00,609.78
9/28/1934 12:00,610.51
9/29/1934 12:00,610.82
9/30/1934 12:00,611.29
10/1/1934 12:00,611.99
10/2/1934 12:00,612.54
10/3/1934 12:00,613.04
10/4/1934 12:00,613.44
10/5/1934 12:00,613.59
10/6/1934 12:00,613.54
10/7/1934 12:00,613.29
10/8/1934 12:00,613.08
10/9/1934 12:00,612.74
10/10/1934 12:00,612.44
10/11/1934 12:00,612.14
10/12/1934 12:00,611.74
10/13/1934 12:00,611.39
10/14/1934 12:00,611.14
10/15/1934 12:00,611.04
10/16/1934 12:00,610.84
10/17/1934 12:00,610.54
10/18/1934 12:00,610.44
10/19/1934 12:00,610.16
10/20/1934 12:00,610.24
10/21/1934 12:00,610.19
10/22/1934 12:00,610.34
10/23/1934 12:00,610.39
10/24/1934 12:00,610.54
10/25/1934 12:00,610.94
10/26/1934 12:00,611.22
10/27/1934 12:00,611.44
10/28/1934 12:00,611.89
10/29/1934 12:00,612.20
10/30/1934 12:00,612.44
10/31/1934 12:00,612.64
11/1/1934 12:00,612.72
11/2/1934 12:00,612.57
11/3/1934 12:00,612.39
11/4/1934 12:00,612.22
11/5/1934 12:00,612.09
11/6/1934 12:00,611.89
11/7/1934 12:00,611.86
11/8/1934 12:00,611.54
11/9/1934 12:00,611.46
11/10/1934 12:00,611.44
11/11/1934 12:00,611.69
11/12/1934 12:00,611.62
11/13/1934 12:00,611.56
11/14/1934 12:00,611.39
11/15/1934 12:00,611.04
11/16/1934 12:00,610.94
11/17/1934 12:00,610.74
11/18/1934 12:00,610.64
11/19/1934 12:00,610.54
11/20/1934 12:00,610.54
11/21/1934 12:00,610.74
11/22/1934 12:00,610.79
11/23/1934 12:00,611.06
11/24/1934 12:00,611.39
11/25/1934 12:00,611.90
11/26/1934 12:00,612.52
11/27/1934 12:00,613.21
11/28/1934 12:00,613.86
11/29/1934 12:00,614.21
11/30/1934 12:00,614.46
12/1/1934 12:00,614.76
12/2/1934 12:00,615.02
12/3/1934 12:00,615.12
12/4/1934 12:00,615.04
12/5/1934 12:00,615.06
12/6/1934 12:00,615.04
12/7/1934 12:00,615.14
12/8/1934 12:00,614.34
12/9/1934 12:00,613.44
12/10/1934 12:00,612.74
12/11/1934 12:00,611.94
12/12/1934 12:00,611.24
12/13/1934 12:00,610.94
12/14/1934 12:00,610.64
12/15/1934 12:00,610.74
12/16/1934 12:00,610.74
12/17/1934 12:00,610.74
12/18/1934 12:00,610.84
12/19/1934 12:00,611.09
12/20/1934 12:00,611.29
12/21/1934 12:00,611.47
12/22/1934 12:00,611.62
12/23/1934 12:00,611.66
12/24/1934 12:00,611.76
12/25/1934 12:00,611.86
12/26/1934 12:00,611.86
12/27/1934 12:00,611.62
12/28/1934 12:00,611.38
12/29/1934 12:00,611.11
12/30/1934 12:00,610.81
12/31/1934 12:00,610.76
1/1/1935 12:00,610.81
1/2/1935 12:00,611.32
1/3/1935 12:00,611.59
1/4/1935 12:00,611.76
1/5/1935 12:00,611.79
1/6/1935 12:00,611.87
1/7/1935 12:00,611.77
1/8/1935 12:00,611.74
1/9/1935 12:00,611.77
1/10/1935 12:00,611.83
1/11/1935 12:00,611.81
1/12/1935 12:00,611.77
1/13/1935 12:00,611.57
1/14/1935 12:00,611.54
1/15/1935 12:00,611.54
1/16/1935 12:00,611.29
1/17/1935 12:00,611.26
1/18/1935 12:00,611.14
1/19/1935 12:00,611.14
1/20/1935 12:00,611.29
1/21/1935 12:00,611.26
1/22/1935 12:00,611.19
1/23/1935 12:00,611.16
1/24/1935 12:00,611.19
1/25/1935 12:00,611.22
1/26/1935 12:00,611.17
1/27/1935 12:00,611.10
1/28/1935 12:00,611.09
1/29/1935 12:00,611.04
1/30/1935 12:00,611.14
1/31/1935 12:00,611.31
2/1/1935 12:00,611.22
2/2/1935 12:00,611.22
2/3/1935 12:00,611.42
2/4/1935 12:00,611.28
2/5/1935 12:00,611.37
2/6/1935 12:00,611.36
2/7/1935 12:00,611.36
2/8/1935 12:00,611.40
2/9/1935 12:00,611.44
2/10/1935 12:00,611.44
2/11/1935 12:00,611.50
2/12/1935 12:00,611.50
2/13/1935 12:00,611.52
2/14/1935 12:00,611.56
2/15/1935 12:00,611.60
2/16/1935 12:00,611.71
2/17/1935 12:00,611.82
2/18/1935 12:00,611.94
2/19/1935 12:00,612.04
2/20/1935 12:00,612.14
2/21/1935 12:00,612.19
2/22/1935 12:00,612.22
2/23/1935 12:00,612.29
2/24/1935 12:00,612.31
2/25/1935 12:00,612.32
2/26/1935 12:00,612.54
2/27/1935 12:00,612.44
2/28/1935 12:00,612.19
3/1/1935 12:00,612.09
3/2/1935 12:00,612.14
3/3/1935 12:00,612.24
3/4/1935 12:00,612.41
3/5/1935 12:00,613.54
3/6/1935 12:00,613.95
3/7/1935 12:00,614.31
3/8/1935 12:00,614.51
3/9/1935 12:00,614.54
3/10/1935 12:00,614.50
3/11/1935 12:00,614.39
3/12/1935 12:00,614.39
3/13/1935 12:00,614.32
3/14/1935 12:00,614.31
3/15/1935 12:00,614.36
3/16/1935 12:00,614.53
3/17/1935 12:00,614.86
3/18/1935 12:00,615.42
3/19/1935 12:00,615.75
3/20/1935 12:00,615.75
3/21/1935 12:00,615.54
3/22/1935 12:00,615.64
3/23/1935 12:00,615.75
3/24/1935 12:00,615.99
3/25/1935 12:00,616.51
3/26/1935 12:00,616.87
3/27/1935 12:00,617.62
3/28/1935 12:00,618.77
3/29/1935 12:00,619.24
3/30/1935 12:00,620.24
3/31/1935 12:00,621.04
4/1/1935 12:00,621.54
4/2/1935 12:00,621.74
4/3/1935 12:00,621.66
4/4/1935 12:00,621.44
4/5/1935 12:00,621.14
4/6/1935 12:00,620.66
4/7/1935 12:00,620.06
4/8/1935 12:00,619.46
4/9/1935 12:00,618.74
4/10/1935 12:00,618.30
4/11/1935 12:00,617.84
4/12/1935 12:00,617.54
4/13/1935 12:00,617.12
4/14/1935 12:00,616.64
4/15/1935 12:00,616.34
4/16/1935 12:00,616.04
4/17/1935 12:00,615.86
4/18/1935 12:00,615.82
4/19/1935 12:00,615.66
4/20/1935 12:00,615.64
4/21/1935 12:00,615.24
4/22/1935 12:00,615.04
4/23/1935 12:00,614.67
4/24/1935 12:00,614.37
4/25/1935 12:00,614.09
4/26/1935 12:00,613.86
4/27/1935 12:00,613.76
4/28/1935 12:00,613.69
4/29/1935 12:00,613.69
4/30/1935 12:00,613.60
5/1/1935 12:00,613.59
5/2/1935 12:00,613.69
5/3/1935 12:00,613.86
5/4/1935 12:00,613.86
5/5/1935 12:00,613.99
5/6/1935 12:00,614.09
5/7/1935 12:00,613.99
5/8/1935 12:00,613.94
5/9/1935 12:00,613.89
5/10/1935 12:00,613.84
5/11/1935 12:00,613.84
5/12/1935 12:00,613.76
5/13/1935 12:00,613.84
5/14/1935 12:00,613.86
5/15/1935 12:00,614.02
5/16/1935 12:00,614.32
5/17/1935 12:00,614.34
5/18/1935 12:00,614.52
5/19/1935 12:00,614.54
5/20/1935 12:00,614.74
5/21/1935 12:00,614.74
5/22/1935 12:00,614.70
5/23/1935 12:00,614.66
5/24/1935 12:00,614.56
5/25/1935 12:00,614.39
5/26/1935 12:00,614.29
5/27/1935 12:00,614.24
5/28/1935 12:00,614.14
5/29/1935 12:00,614.04
5/30/1935 12:00,614.02
5/31/1935 12:00,613.64
6/1/1935 12:00,613.24
6/2/1935 12:00,612.59
6/3/1935 12:00,612.34
6/4/1935 12:00,612.14
6/5/1935 12:00,611.59
6/6/1935 12:00,611.64
6/7/1935 12:00,611.54
6/8/1935 12:00,611.44
6/9/1935 12:00,611.34
6/10/1935 12:00,611.24
6/11/1935 12:00,611.14
6/12/1935 12:00,610.84
6/13/1935 12:00,610.69
6/14/1935 12:00,610.64
6/15/1935 12:00,610.44
6/16/1935 12:00,610.34
6/17/1935 12:00,610.28
6/18/1935 12:00,610.59
6/19/1935 12:00,611.32
6/20/1935 12:00,611.84
6/21/1935 12:00,612.47
6/22/1935 12:00,612.99
6/23/1935 12:00,613.39
6/24/1935 12:00,613.74
6/25/1935 12:00,614.34
6/26/1935 12:00,614.84
6/27/1935 12:00,615.24
6/28/1935 12:00,615.44
6/29/1935 12:00,615.67
6/30/1935 12:00,615.79
7/1/1935 12:00,615.64
7/2/1935 12:00,615.44
7/3/1935 12:00,615.04
7/4/1935 12:00,614.94
7/5/1935 12:00,614.84
7/6/1935 12:00,614.84
7/7/1935 12:00,615.19
7/8/1935 12:00,615.49
7/9/1935 12:00,615.60
7/10/1935 12:00,615.64
7/11/1935 12:00,615.74
7/12/1935 12:00,615.94
7/13/1935 12:00,616.14
7/14/1935 12:00,616.24
7/15/1935 12:00,616.24
7/16/1935 12:00,616.19
7/17/1935 12:00,615.99
7/18/1935 12:00,615.89
7/19/1935 12:00,615.64
7/20/1935 12:00,615.29
7/21/1935 12:00,614.84
7/22/1935 12:00,614.39
7/23/1935 12:00,613.54
7/24/1935 12:00,612.84
7/25/1935 12:00,612.14
7/26/1935 12:00,611.94
7/27/1935 12:00,611.94
7/28/1935 12:00,611.84
7/29/1935 12:00,611.74
7/30/1935 12:00,612.04
7/31/1935 12:00,612.34
8/1/1935 12:00,612.44
8/2/1935 12:00,612.79
8/3/1935 12:00,613.54
8/4/1935 12:00,613.99
8/5/1935 12:00,614.29
8/6/1935 12:00,614.29
8/7/1935 12:00,614.34
8/8/1935 12:00,614.69
8/9/1935 12:00,614.89
8/10/1935 12:00,615.19
8/11/1935 12:00,615.34
8/12/1935 12:00,615.34
8/13/1935 12:00,615.14
8/14/1935 12:00,614.99
8/15/1935 12:00,614.54
8/16/1935 12:00,613.79
8/17/1935 12:00,612.89
8/18/1935 12:00,612.34
8/19/1935 12:00,612.09
8/20/1935 12:00,611.84
8/21/1935 12:00,611.74
8/22/1935 12:00,611.74
8/23/1935 12:00,611.84
8/24/1935 12:00,612.04
8/25/1935 12:00,612.29
8/26/1935 12:00,612.34
8/27/1935 12:00,612.24
8/28/1935 12:00,612.19
8/29/1935 12:00,612.09
8/30/1935 12:00,611.94
8/31/1935 12:00,611.79
9/1/1935 12:00,611.69
9/2/1935 12:00,611.64
9/3/1935 12:00,611.49
9/4/1935 12:00,611.44
9/5/1935 12:00,611.29
9/6/1935 12:00,611.09
9/7/1935 12:00,610.89
9/8/1935 12:00,610.74
9/9/1935 12:00,610.64
9/10/1935 12:00,610.69
9/11/1935 12:00,610.79
9/12/1935 12:00,610.74
9/13/1935 12:00,610.69
9/14/1935 12:00,610.64
9/15/1935 12:00,610.49
9/16/1935 12:00,610.24
9/17/1935 12:00,609.94
9/18/1935 12:00,609.94
9/19/1935 12:00,609.94
9/20/1935 12:00,609.94
9/21/1935 12:00,610.39
9/22/1935 12:00,610.84
9/23/1935 12:00,611.39
9/24/1935 12:00,611.74
9/25/1935 12:00,611.74
9/26/1935 12:00,611.64
9/27/1935 12:00,611.29
9/28/1935 12:00,611.24
9/29/1935 12:00,610.99
9/30/1935 12:00,610.79
10/1/1935 12:00,610.24
10/2/1935 12:00,610.09
10/3/1935 12:00,609.99
10/4/1935 12:00,609.84
10/5/1935 12:00,609.79
10/6/1935 12:00,609.79
10/7/1935 12:00,609.74
10/8/1935 12:00,609.79
10/9/1935 12:00,609.84
10/10/1935 12:00,609.79
10/11/1935 12:00,609.49
10/12/1935 12:00,609.64
10/13/1935 12:00,609.49
10/14/1935 12:00,609.49
10/15/1935 12:00,609.44
10/16/1935 12:00,609.44
10/17/1935 12:00,609.59
10/18/1935 12:00,609.54
10/19/1935 12:00,609.54
10/20/1935 12:00,609.54
10/21/1935 12:00,609.59
10/22/1935 12:00,609.44
10/23/1935 12:00,609.44
10/24/1935 12:00,609.84
10/25/1935 12:00,610.09
10/26/1935 12:00,610.14
10/27/1935 12:00,610.04
10/28/1935 12:00,610.04
10/29/1935 12:00,609.84
10/30/1935 12:00,609.84
10/31/1935 12:00,610.09
11/1/1935 12:00,610.34
11/2/1935 12:00,610.54
11/3/1935 12:00,610.94
11/4/1935 12:00,611.54
11/5/1935 12:00,611.89
11/6/1935 12:00,612.49
11/7/1935 12:00,612.89
11/8/1935 12:00,613.09
11/9/1935 12:00,613.04
11/10/1935 12:00,612.99
11/11/1935 12:00,612.54
11/12/1935 12:00,612.04
11/13/1935 12:00,611.84
11/14/1935 12:00,611.64
11/15/1935 12:00,611.54
11/16/1935 12:00,611.24
11/17/1935 12:00,611.14
11/18/1935 12:00,611.14
11/19/1935 12:00,611.04
11/20/1935 12:00,611.04
11/21/1935 12:00,610.79
11/22/1935 12:00,610.74
11/23/1935 12:00,610.74
11/24/1935 12:00,610.64
11/25/1935 12:00,610.59
11/26/1935 12:00,610.39
11/27/1935 12:00,610.29
11/28/1935 12:00,610.44
11/29/1935 12:00,610.64
11/30/1935 12:00,610.54
12/1/1935 12:00,610.64
12/2/1935 12:00,610.64
12/3/1935 12:00,610.79
12/4/1935 12:00,610.74
12/5/1935 12:00,609.94
12/6/1935 12:00,609.74
12/7/1935 12:00,609.94
12/8/1935 12:00,610.49
12/9/1935 12:00,610.94
12/10/1935 12:00,611.19
12/11/1935 12:00,611.19
12/12/1935 12:00,610.29
12/13/1935 12:00,609.74
12/14/1935 12:00,609.64
12/15/1935 12:00,610.04
12/16/1935 12:00,610.44
12/17/1935 12:00,610.74
12/18/1935 12:00,610.94
12/19/1935 12:00,611.19
12/20/1935 12:00,611.24
12/21/1935 12:00,611.19
12/22/1935 12:00,610.64
12/23/1935 12:00,610.04
12/24/1935 12:00,609.94
12/25/1935 12:00,609.99
12/26/1935 12:00,610.39
12/27/1935 12:00,610.84
12/28/1935 12:00,611.04
12/29/1935 12:00,611.19
12/30/1935 12:00,611.34
12/31/1935 12:00,611.54
1/1/1936 12:00,611.64
1/2/1936 12:00,611.69
1/3/1936 12:00,611.74
1/4/1936 12:00,611.74
1/5/1936 12:00,611.74
1/6/1936 12:00,611.89
1/7/1936 12:00,611.89
1/8/1936 12:00,611.94
1/9/1936 12:00,611.94
1/10/1936 12:00,611.94
1/11/1936 12:00,611.84
1/12/1936 12:00,611.74
1/13/1936 12:00,611.74
1/14/1936 12:00,611.69
1/15/1936 12:00,611.69
1/16/1936 12:00,611.64
1/17/1936 12:00,611.64
1/18/1936 12:00,611.64
1/19/1936 12:00,611.49
1/20/1936 12:00,611.39
1/21/1936 12:00,611.34
1/22/1936 12:00,611.19
1/23/1936 12:00,611.19
1/24/1936 12:00,611.09
1/25/1936 12:00,610.74
1/26/1936 12:00,610.74
1/27/1936 12:00,610.59
1/28/1936 12:00,610.59
1/29/1936 12:00,610.59
1/30/1936 12:00,610.59
1/31/1936 12:00,610.59
2/1/1936 12:00,610.54
2/2/1936 12:00,610.59
2/3/1936 12:00,610.49
2/4/1936 12:00,610.49
2/5/1936 12:00,610.49
2/6/1936 12:00,610.49
2/7/1936 12:00,610.49
2/8/1936 12:00,610.49
2/9/1936 12:00,610.49
2/10/1936 12:00,610.49
2/11/1936 12:00,610.49
2/12/1936 12:00,610.49
2/13/1936 12:00,610.79
2/14/1936 12:00,610.79
2/15/1936 12:00,610.79
2/16/1936 12:00,610.79
2/17/1936 12:00,610.69
2/18/1936 12:00,610.69
2/19/1936 12:00,610.69
2/20/1936 12:00,610.69
2/21/1936 12:00,610.69
2/22/1936 12:00,610.79
2/23/1936 12:00,610.44
2/24/1936 12:00,610.44
2/25/1936 12:00,610.54
2/26/1936 12:00,610.84
2/27/1936 12:00,610.99
2/28/1936 12:00,611.14
2/29/1936 12:00,611.29
3/1/1936 12:00,611.39
3/2/1936 12:00,611.39
3/3/1936 12:00,611.54
3/4/1936 12:00,611.64
3/5/1936 12:00,611.64
3/6/1936 12:00,611.84
3/7/1936 12:00,611.84
3/8/1936 12:00,612.14
3/9/1936 12:00,612.14
3/10/1936 12:00,612.54
3/11/1936 12:00,613.79
3/12/1936 12:00,614.59
3/13/1936 12:00,615.09
3/14/1936 12:00,615.69
3/15/1936 12:00,616.09
3/16/1936 12:00,616.34
3/17/1936 12:00,616.69
3/18/1936 12:00,616.69
3/19/1936 12:00,617.04
3/20/1936 12:00,616.74
3/21/1936 12:00,616.64
3/22/1936 12:00,617.09
3/23/1936 12:00,617.34
3/24/1936 12:00,617.64
3/25/1936 12:00,618.24
3/26/1936 12:00,619.04
3/27/1936 12:00,619.84
3/28/1936 12:00,620.59
3/29/1936 12:00,621.14
3/30/1936 12:00,621.54
3/31/1936 12:00,621.84
4/1/1936 12:00,622.19
4/2/1936 12:00,622.49
4/3/1936 12:00,622.64
4/4/1936 12:00,622.49
4/5/1936 12:00,622.29
4/6/1936 12:00,621.94
4/7/1936 12:00,621.59
4/8/1936 12:00,621.19
4/9/1936 12:00,620.69
4/10/1936 12:00,620.19
4/11/1936 12:00,619.69
4/12/1936 12:00,619.34
4/13/1936 12:00,619.14
4/14/1936 12:00,618.74
4/15/1936 12:00,618.59
4/16/1936 12:00,618.59
4/17/1936 12:00,618.54
4/18/1936 12:00,618.79
4/19/1936 12:00,619.44
4/20/1936 12:00,620.09
4/21/1936 12:00,620.79
4/22/1936 12:00,621.29
4/23/1936 12:00,621.59
4/24/1936 12:00,621.69
4/25/1936 12:00,621.64
4/26/1936 12:00,621.24
4/27/1936 12:00,620.84
4/28/1936 12:00,620.49
4/29/1936 12:00,620.04
4/30/1936 12:00,619.64
5/1/1936 12:00,619.34
5/2/1936 12:00,618.99
5/3/1936 12:00,618.94
5/4/1936 12:00,618.89
5/5/1936 12:00,618.74
5/6/1936 12:00,618.69
5/7/1936 12:00,618.74
5/8/1936 12:00,618.79
5/9/1936 12:00,618.84
5/10/1936 12:00,618.94
5/11/1936 12:00,618.94
5/12/1936 12:00,618.99
5/13/1936 12:00,619.24
5/14/1936 12:00,619.54
5/15/1936 12:00,619.94
5/16/1936 12:00,620.39
5/17/1936 12:00,620.39
5/18/1936 12:00,620.14
5/19/1936 12:00,619.84
5/20/1936 12:00,619.44
5/21/1936 12:00,619.09
5/22/1936 12:00,618.74
5/23/1936 12:00,618.44
5/24/1936 12:00,618.14
5/25/1936 12:00,617.84
5/26/1936 12:00,617.59
5/27/1936 12:00,617.34
5/28/1936 12:00,617.14
5/29/1936 12:00,616.84
5/30/1936 12:00,616.49
5/31/1936 12:00,616.14
6/1/1936 12:00,615.84
6/2/1936 12:00,615.64
6/3/1936 12:00,615.04
6/4/1936 12:00,614.74
6/5/1936 12:00,614.19
6/6/1936 12:00,613.79
6/7/1936 12:00,613.54
6/8/1936 12:00,613.09
6/9/1936 12:00,613.14
6/10/1936 12:00,613.34
6/11/1936 12:00,613.14
6/12/1936 12:00,612.99
6/13/1936 12:00,612.54
6/14/1936 12:00,612.34
6/15/1936 12:00,612.09
6/16/1936 12:00,611.89
6/17/1936 12:00,611.69
6/18/1936 12:00,611.29
6/19/1936 12:00,611.19
6/20/1936 12:00,610.99
6/21/1936 12:00,610.74
6/22/1936 12:00,610.54
6/23/1936 12:00,610.39
6/24/1936 12:00,610.29
6/25/1936 12:00,610.29
6/26/1936 12:00,610.29
6/27/1936 12:00,610.14
6/28/1936 12:00,610.09
6/29/1936 12:00,610.09
6/30/1936 12:00,609.89
7/1/1936 12:00,609.79
7/2/1936 12:00,609.79
7/3/1936 12:00,609.79
7/4/1936 12:00,609.69
7/5/1936 12:00,609.49
7/6/1936 12:00,609.34
7/7/1936 12:00,609.24
7/8/1936 12:00,609.09
7/9/1936 12:00,608.99
7/10/1936 12:00,608.89
7/11/1936 12:00,608.89
7/12/1936 12:00,608.79
7/13/1936 12:00,608.79
7/14/1936 12:00,608.64
7/15/1936 12:00,608.54
7/16/1936 12:00,608.49
7/17/1936 12:00,608.49
7/18/1936 12:00,608.49
7/19/1936 12:00,608.39
7/20/1936 12:00,608.24
7/21/1936 12:00,608.14
7/22/1936 12:00,608.14
7/23/1936 12:00,608.14
7/24/1936 12:00,607.79
7/25/1936 12:00,607.64
7/26/1936 12:00,607.49
7/27/1936 12:00,607.34
7/28/1936 12:00,607.29
7/29/1936 12:00,607.39
7/30/1936 12:00,607.59
7/31/1936 12:00,607.54
8/1/1936 12:00,607.29
8/2/1936 12:00,607.29
8/3/1936 12:00,607.24
8/4/1936 12:00,607.14
8/5/1936 12:00,607.09
8/6/1936 12:00,607.14
8/7/1936 12:00,607.24
8/8/1936 12:00,607.29
8/9/1936 12:00,607.29
8/10/1936 12:00,607.29
8/11/1936 12:00,607.29
8/12/1936 12:00,607.24
8/13/1936 12:00,607.24
8/14/1936 12:00,607.19
8/15/1936 12:00,607.14
8/16/1936 12:00,607.14
8/17/1936 12:00,607.09
8/18/1936 12:00,606.99
8/19/1936 12:00,606.99
8/20/1936 12:00,606.94
8/21/1936 12:00,607.14
8/22/1936 12:00,607.34
8/23/1936 12:00,607.59
8/24/1936 12:00,607.74
8/25/1936 12:00,607.74
8/26/1936 12:00,607.74
8/27/1936 12:00,607.79
8/28/1936 12:00,607.95
8/29/1936 12:00,608.70
8/30/1936 12:00,609.75
8/31/1936 12:00,610.30
9/1/1936 12:00,610.10
9/2/1936 12:00,609.70
9/3/1936 12:00,609.10
9/4/1936 12:00,608.80
9/5/1936 12:00,608.70
9/6/1936 12:00,608.90
9/7/1936 12:00,608.85
9/8/1936 12:00,608.95
9/9/1936 12:00,609.65
9/10/1936 12:00,609.90
9/11/1936 12:00,609.70
9/12/1936 12:00,609.25
9/13/1936 12:00,609.00
9/14/1936 12:00,608.90
9/15/1936 12:00,608.90
9/16/1936 12:00,609.15
9/17/1936 12:00,609.75
9/18/1936 12:00,609.95
9/19/1936 12:00,609.60
9/20/1936 12:00,609.20
9/21/1936 12:00,609.00
9/22/1936 12:00,609.20
9/23/1936 12:00,609.45
9/24/1936 12:00,609.40
9/25/1936 12:00,609.10
9/26/1936 12:00,609.05
9/27/1936 12:00,608.80
9/28/1936 12:00,608.55
9/29/1936 12:00,608.70
9/30/1936 12:00,608.65
10/1/1936 12:00,608.45
10/2/1936 12:00,608.20
10/3/1936 12:00,608.25
10/4/1936 12:00,608.15
10/5/1936 12:00,608.15
10/6/1936 12:00,608.10
10/7/1936 12:00,608.05
10/8/1936 12:00,608.15
10/9/1936 12:00,608.30
10/10/1936 12:00,608.30
10/11/1936 12:00,608.30
10/12/1936 12:00,608.45
10/13/1936 12:00,608.50
10/14/1936 12:00,608.40
10/15/1936 12:00,608.35
10/16/1936 12:00,608.35
10/17/1936 12:00,608.40
10/18/1936 12:00,608.40
10/19/1936 12:00,608.40
10/20/1936 12:00,608.35
10/21/1936 12:00,608.30
10/22/1936 12:00,608.30
10/23/1936 12:00,608.30
10/24/1936 12:00,608.30
10/25/1936 12:00,608.30
10/26/1936 12:00,608.35
10/27/1936 12:00,608.30
10/28/1936 12:00,608.40
10/29/1936 12:00,608.40
10/30/1936 12:00,608.40
10/31/1936 12:00,608.40
11/1/1936 12:00,608.45
11/2/1936 12:00,608.75
11/3/1936 12:00,608.90
11/4/1936 12:00,609.20
11/5/1936 12:00,609.25
11/6/1936 12:00,609.10
11/7/1936 12:00,609.10
11/8/1936 12:00,609.00
11/9/1936 12:00,609.00
11/10/1936 12:00,609.00
11/11/1936 12:00,609.15
11/12/1936 12:00,608.95
11/13/1936 12:00,608.90
11/14/1936 12:00,608.90
11/15/1936 12:00,608.80
11/16/1936 12:00,608.75
11/17/1936 12:00,608.70
11/18/1936 12:00,608.70
11/19/1936 12:00,608.70
11/20/1936 12:00,608.70
11/21/1936 12:00,608.70
11/22/1936 12:00,608.80
11/23/1936 12:00,608.70
11/24/1936 12:00,608.65
11/25/1936 12:00,608.60
11/26/1936 12:00,608.60
11/27/1936 12:00,608.70
11/28/1936 12:00,608.90
11/29/1936 12:00,608.80
11/30/1936 12:00,608.70
12/1/1936 12:00,608.60
12/2/1936 12:00,608.35
12/3/1936 12:00,608.20
12/4/1936 12:00,608.10
12/5/1936 12:00,608.10
12/6/1936 12:00,608.30
12/7/1936 12:00,608.40
12/8/1936 12:00,608.40
12/9/1936 12:00,608.50
12/10/1936 12:00,608.70
12/11/1936 12:00,608.80
12/12/1936 12:00,608.80
12/13/1936 12:00,608.80
12/14/1936 12:00,608.80
12/15/1936 12:00,608.80
12/16/1936 12:00,608.80
12/17/1936 12:00,609.05
12/18/1936 12:00,609.25
12/19/1936 12:00,609.25
12/20/1936 12:00,609.55
12/21/1936 12:00,609.80
12/22/1936 12:00,609.90
12/23/1936 12:00,610.10
12/24/1936 12:00,610.10
12/25/1936 12:00,610.10
12/26/1936 12:00,609.90
12/27/1936 12:00,609.80
12/28/1936 12:00,610.20
12/29/1936 12:00,610.40
12/30/1936 12:00,610.40